Goodland, KS

12:28 AM MST on December 06, 2016 (GMT -0700)
Renner-Goodland Municipal

Weather History for KGLD - April, 2013

Change the Weather History Date:

Thursday, April 25, 2013

  Actual Average Record
Temperature  
Mean Temperature 49 °F 52 °F  
Max Temperature 69 °F 67 °F 88 °F (1981)
Min Temperature 28 °F 38 °F 22 °F (2002)
Degree Days  
Heating Degree Days 16 13  
Month to date heating degree days 598 419  
Since 1 July heating degree days 5728 5594  
Cooling Degree Days 0 0  
Month to date cooling degree days 0 0  
Year to date cooling degree days 0 0  
Moisture  
Dew Point 29 °F    
Average Humidity 50    
Maximum Humidity 78    
Minimum Humidity 22    
Precipitation  
Precipitation 0.06 in 0.06 in 0.78 in (1930)
Month to date precipitation 0.79 1.28  
Year to date precipitation 3.09 3.22  
Snow  
Snow 0.00 in 0.10 in - ()
Month to date snowfall 12.7 3.9  
Since 1 July snowfall 55.7 34.7  
Snow Depth T in    
Sea Level Pressure  
Sea Level Pressure 30.02 in    
Wind  
Wind Speed 17 mph (South)    
Max Wind Speed 35 mph    
Max Gust Speed 44 mph    
Visibility 10 miles    
Events Rain    
T = Trace of Precipitation, MM = Missing Value Source: NWS Daily Summary

Daily Weather History Graph

Daily Weather History Graph

Search for Another Location

Airport or City:

Trip Planner

Search our weather history database for the weather conditions in past years. The results will help you decide how hot, cold, wet, or windy it might be!

Date:

Astronomy

Apr. 25, 2013 Rise Set
Actual Time 5:55 AM MDT 7:34 PM MDT
Civil Twilight 5:26 AM MDT 8:03 PM MDT
Nautical Twilight 4:52 AM MDT 8:37 PM MDT
Astronomical Twilight 4:15 AM MDT 9:14 PM MDT
Moon 7:49 PM MDT (4/25) 5:39 AM MDT (4/25)
Length of Visible Light 14h 36m
Length of Day
13h 39m
Full, 100% of the Moon is Illuminated
Apr 25
Full
Apr 25
Full
May 2
Last Quarter
May 9
New
May 17
First Quarter

Hourly Weather History & Observations

Time (MDT) Temp. Windchill Dew Point Humidity Pressure Visibility Wind Dir Wind Speed Gust Speed Precip Events Conditions
12:53 AM 30.0 °F - 25.0 °F 82% 30.26 in 10.0 mi Calm Calm - N/A   Clear
1:53 AM 32.0 °F 24.8 °F 25.0 °F 75% 30.24 in 10.0 mi South 8.1 mph - N/A   Clear
2:53 AM 30.9 °F 23.5 °F 25.0 °F 79% 30.23 in 10.0 mi South 8.1 mph - N/A   Clear
3:53 AM 33.1 °F 25.5 °F 25.0 °F 72% 30.20 in 10.0 mi South 9.2 mph - N/A   Clear
4:53 AM 30.9 °F 22.8 °F 24.1 °F 76% 30.17 in 10.0 mi South 9.2 mph - N/A   Clear
5:53 AM 30.0 °F 20.5 °F 24.1 °F 79% 30.16 in 10.0 mi South 11.5 mph - N/A   Clear
6:53 AM 33.1 °F 24.4 °F 26.1 °F 75% 30.16 in 10.0 mi South 11.5 mph - N/A   Clear
7:53 AM 39.0 °F 31.4 °F 27.0 °F 62% 30.15 in 10.0 mi South 12.7 mph - N/A   Clear
8:53 AM 46.9 °F - 28.9 °F 50% 30.14 in 10.0 mi SSW 12.7 mph - N/A   Clear
9:53 AM 53.1 °F - 32.0 °F 45% 30.12 in 10.0 mi South 13.8 mph - N/A   Clear
10:53 AM 60.1 °F - 30.9 °F 33% 30.08 in 10.0 mi South 20.7 mph 26.5 mph N/A   Clear
11:53 AM 66.0 °F - 28.0 °F 24% 30.03 in 10.0 mi South 29.9 mph 38.0 mph N/A   Clear
12:53 PM 66.9 °F - 28.9 °F 24% 29.99 in 10.0 mi South 28.8 mph 42.6 mph N/A   Mostly Cloudy
1:14 PM 68.0 °F - 28.4 °F 23% 30.00 in 10.0 mi South 25.3 mph 38.0 mph N/A   Overcast
1:53 PM 68.0 °F - 28.0 °F 22% 29.96 in 10.0 mi South 27.6 mph 43.7 mph N/A   Overcast
2:13 PM 66.2 °F - 26.6 °F 23% 29.98 in 10.0 mi South 29.9 mph 39.1 mph N/A   Overcast
2:34 PM 66.2 °F - 26.6 °F 23% 29.98 in 10.0 mi South 27.6 mph 38.0 mph N/A   Overcast
2:53 PM 66.0 °F - 27.0 °F 23% 29.94 in 10.0 mi SSW 25.3 mph 34.5 mph N/A   Overcast
3:18 PM 66.2 °F - 28.4 °F 24% 29.95 in 10.0 mi SSW 21.9 mph 31.1 mph N/A   Scattered Clouds
3:37 PM 69.8 °F - 28.4 °F 21% 29.94 in 10.0 mi SSW 19.6 mph 32.2 mph N/A   Mostly Cloudy
3:53 PM 68.0 °F - 28.0 °F 22% 29.90 in 10.0 mi SSW 24.2 mph 34.5 mph N/A   Overcast
4:32 PM 66.2 °F - 28.4 °F 24% 29.92 in 10.0 mi SSW 21.9 mph 33.4 mph N/A   Mostly Cloudy
4:53 PM 66.9 °F - 28.0 °F 23% 29.88 in 10.0 mi South 23.0 mph 32.2 mph N/A   Mostly Cloudy
5:04 PM 66.2 °F - 28.4 °F 24% 29.91 in 10.0 mi SSW 18.4 mph 32.2 mph N/A   Overcast
5:31 PM 68.0 °F - 28.4 °F 23% 29.91 in 10.0 mi South 23.0 mph 31.1 mph N/A   Scattered Clouds
5:53 PM 66.0 °F - 28.9 °F 25% 29.89 in 10.0 mi South 23.0 mph 32.2 mph N/A   Clear
6:53 PM 61.0 °F - 28.9 °F 30% 29.90 in 10.0 mi South 18.4 mph - N/A   Clear
7:53 PM 55.9 °F - 30.9 °F 39% 29.90 in 10.0 mi SSE 11.5 mph - N/A   Clear
8:53 PM 54.0 °F - 32.0 °F 43% 29.93 in 10.0 mi South 11.5 mph - N/A   Scattered Clouds
9:53 PM 54.0 °F - 44.1 °F 69% 29.99 in 10.0 mi SW 28.8 mph 40.3 mph 0.00 in Rain Light Rain
10:53 PM 51.1 °F - 45.0 °F 80% 29.90 in 10.0 mi SSE 15.0 mph - 0.06 in   Partly Cloudy
11:53 PM 48.0 °F - 39.9 °F 74% 29.92 in 10.0 mi SSE 13.8 mph - N/A   Clear